Regional Weather Roundup
Issued by NWS Sioux Falls, SD

Home | Current Version | Previous Version | Text Only | Print | Product List | Glossary Off
Versions: 1 2 3 4 5 6 7 8 9 10 11 12 13 14 15 16 17 18 19 20 21 22 23 24 25 26 27 28 29 30 31 32 33 34 35 36 37 38 39 40 41 42 43 44 45 46 47 48 49 50

000
ASUS43 KFSD 242010
RWRFSD

WEATHER ROUNDUP FOR SE SOUTH DAKOTA/SW MINNESOTA/NW IOWA
NATIONAL WEATHER SERVICE SIOUX FALLS SD
200 PM CST FRI FEB 24 2017

NOTE: "FAIR" INDICATES FEW OR NO CLOUDS BELOW 12,000 FEET WITH NO
SIGNIFICANT WEATHER AND OR OBSTRUCTIONS TO VISIBILITY.


SDZ038>040-050-052>070-242100-
SOUTHEAST SOUTH DAKOTA

CITY           SKY/WX    TMP DP  RH WIND       PRES   REMARKS
BROOKINGS      PTSUNNY   26  13  57 N25G31    29.91F WCI  11
CHAMBERLAIN    CLOUDY    32  16  51 N15G22    30.04F WCI  22
HURON          CLOUDY    31  14  49 N18G30    30.02F WCI  19
MADISON        FAIR      27  16  63 N28G35    29.92F WCI  11
MITCHELL       MOSUNNY   32  16  51 N25G32    30.01S WCI  19
SIOUX FALLS    CLOUDY    27  14  58 N25G35    29.91F WCI  12
WINNER         CLOUDY    27  15  61 N20       30.06S WCI  13
YANKTON        MOSUNNY  N/A N/A N/A NW21G28   29.94F
$$

MNZ071-072-080-081-089-090-097-098-242100-
SOUTHWEST MINNESOTA

CITY           SKY/WX    TMP DP  RH WIND       PRES   REMARKS
FAIRMONT       CLOUDY    24  18  77 N23G32    29.79S HAZE    WCI   9
JACKSON        CLOUDY    23  18  80 N16G31    29.80F HAZE    WCI  10
LUVERNE        CLOUDY    27  12  54 N21G33    29.88F WCI  13
MARSHALL       NOT AVBL
MONTEVIDEO     MOSUNNY   27  14  59 N24G30    29.95S WCI  12
PIPESTONE      CLOUDY    27  10  50 N22G30    29.88S WCI  12
REDWOOD FALLS  PTSUNNY   28  11  48 N17G29    29.88S WCI  16
TRACY          PTSUNNY   28  15  60 N25G35    29.88F WCI  13
WINDOM         CLOUDY    25  16  68 N31G37    29.82F HAZE    WCI   8
WORTHINGTON    CLOUDY    23  16  74 N31       29.82F HAZE    WCI   5
$$

IAZ001>003-012>014-020>022-031-032-NEZ013-014-SDZ071-242100-
NORTHWEST IOWA

CITY           SKY/WX    TMP DP  RH WIND       PRES   REMARKS
CHEROKEE       CLOUDY    24  18  79 N17G31    29.83S WCI  10
DENISON        SNOW      23  21  93 N23G31    29.78R VSB 1/2 WCI   7
ESTHERVILLE    CLOUDY    22  17  81 N24G31    29.79S HAZE    WCI   5
LE MARS        PTSUNNY   25  18  74 N21G28    29.89R WCI  10
SHELDON        CLOUDY    23  21  93 N25G31    29.83F WCI   7
SIOUX CITY     CLOUDY    26  17  68 N23       29.89R WCI  11
SPENCER        CLOUDY    24  17  74 N28G36    29.81R HAZE    WCI   7
STORM LAKE     SNOW      21  19  93 N30G38    29.78R VSB 1/4 WCI   3
$$

ABBREVIATIONS USED IN REMARKS
   TC - TEMPERATURE IN CELSIUS
  WCI - WIND CHILL INDEX
   HX - HEAT INDEX
  VSB - VISIBILITY





USA.gov is the U.S. government's official web portal to all federal, state and local government web resources and services.